This demonstration page uses our WeatherBlox Daily Observations layout. Learn more.

Left ArrowRight Arrow

39.12711, -84.51439

Hourly Observations for June 11, 2017

Temp ( °F °C ) Dew Point ( °F °C ) Humidity (%) Winds ( mph kmh ) Pressure ( in mb ) Visibility ( mi km ) Precip ( " mm )
12:53 am 00:53 Clear 63 17.2 61 16.1 93 93 S 9 15 30.04 1017 10 16 0.00 0.00
1:53 am 01:53 Clear 65 18.3 61 16.1 87 87 SSW 6 9 30.04 1017 10 16 0.00 0.00
2:53 am 02:53 Clear 63 17.2 61 16.1 93 93 Calm 30.06 1018 10 16 0.00 0.00
3:53 am 03:53 Clear 61 16.1 60 15.6 97 97 Calm 30.07 1018 9 14 0.00 0.00
4:53 am 04:53 Clear 62 16.7 61 16.1 96 96 Calm 30.08 1019 9 14 0.00 0.00
5:53 am 05:53 Clear 62 16.7 61 16.1 96 96 Calm 30.10 1019 8 13 0.00 0.00
6:20 am 06:20 Sunny with Mist and Fog 59 15 59 15 100 100 Calm 30.12 1020 1 1 0.00 0.00
6:28 am 06:28 Sunny with Fog 60 15.6 60 15.6 100 100 Calm 30.09 1019 0 0 0.00 0.00
6:34 am 06:34 Sunny with Mist and Fog 61 16.1 61 16.1 100 100 Calm 30.09 1019 2 2 0.00 0.00
6:41 am 06:41 Sunny 61 16.1 61 16.1 100 100 Calm 30.09 1019 7 11 0.00 0.00
6:53 am 06:53 Sunny with Mist and Fog 61 16.1 61 16.1 100 100 Calm 30.12 1020 6 10 0.00 0.00
7:53 am 07:53 Sunny 67 19.4 64 17.8 91 91 Calm 30.13 1020 8 13 0.00 0.00
8:53 am 08:53 Sunny 73 22.8 66 18.9 79 79 Calm 30.14 1021 10 16 0.00 0.00
9:53 am 09:53 Sunny 77 25 66 18.9 69 69 S 7 11 30.14 1021 10 16 0.00 0.00
10:53 am 10:53 Sunny 81 27.2 67 19.4 62 62 S 9 15 30.12 1020 10 16 0.00 0.00
11:53 am 11:53 Partly Cloudy 85 29.4 66 18.9 53 53 SSW 8 13 30.12 1020 10 16 0.00 0.00
12:53 pm 12:53 Mostly Sunny 86 30 64 17.8 48 48 SW 17 28 30.11 1020 10 16 0.00 0.00
1:53 pm 13:53 Mostly Sunny 87 30.6 64 17.8 46 46 SSW 14 22 30.10 1019 10 16 0.00 0.00
2:53 pm 14:53 Mostly Cloudy 87 30.6 65 18.3 48 48 SSW 14 22 30.09 1019 10 16 0.00 0.00
3:53 pm 15:53 Mostly Cloudy 86 30 65 18.3 49 49 SSW 14 22 30.08 1019 10 16 0.00 0.00
4:53 pm 16:53 Partly Cloudy 87 30.6 65 18.3 48 48 S 14 22 30.07 1018 10 16 0.00 0.00
5:53 pm 17:53 Mostly Cloudy 86 30 63 17.2 46 46 S 16 26 30.07 1018 10 16 0.00 0.00
6:53 pm 18:53 Mostly Cloudy 85 29.4 65 18.3 51 51 S 13 20 30.05 1018 10 16 0.00 0.00
7:53 pm 19:53 Mostly Sunny 82 27.8 65 18.3 56 56 S 8 13 30.04 1017 10 16 0.00 0.00
8:53 pm 20:53 Sunny 78 25.6 65 18.3 64 64 S 5 7 30.04 1017 10 16 0.00 0.00
9:53 pm 21:53 Clear 74 23.3 66 18.9 76 76 SW 3 6 30.04 1017 10 16 0.00 0.00
10:53 pm 22:53 Clear 72 22.2 66 18.9 82 82 Calm 30.05 1018 10 16 0.00 0.00
11:53 pm 23:53 Clear 69 20.6 66 18.9 90 90 SSW 5 7 30.06 1018 10 16 0.00 0.00

Powered by AerisWeather